Location: Austin
(30.3000°N, 97.7500°W)
Time: 22:45:08
(UTC-05:00)

Cosmos 1455 Rocket - Pass Details

Date: 06 May 2026
Orbit: 598 x 622 km, 82.5° (Epoch: 13 May)

Event Time Altitude Azimuth Distance (km) Brightness Sun altitude
Exits shadow 22:20:22 35° 36° (NE) 998 4.1 -24.8°
Drops below altitude 10° 22:23:08 10° 16° (NNE) 1,988 5.9 -25.3°
Sets 22:25:23 0° 12° (NNE) 2,895 6.9 -25.7°
